| time (UTC) | temp F | wind direction | speed MPH | gust MPH | rain 1hr in | rain 24hr in | rain mn in | humidity % | barometer mb |
| 20260906191653 | 79 | 272 | 4.0 | 9.0 | 0.00 | 0.00 | 0.00 | 79 | 1015.2 |
| 20260906190057 | 79 | 232 | 6.0 | 11.0 | 0.00 | 0.00 | 0.00 | 79 | 1015.1 |
| 20260906184653 | 80 | 262 | 5.0 | 11.0 | 0.00 | 0.00 | 0.00 | 79 | 1014.9 |
| 20260906183058 | 80 | 280 | 4.0 | 9.0 | 0.00 | 0.00 | 0.00 | 78 | 1014.7 |
| 20260906181552 | 80 | 227 | 3.0 | 11.0 | 0.00 | 0.00 | 0.00 | 79 | 1015.1 |
| 20260906180049 | 80 | 236 | 5.0 | 11.0 | 0.00 | 0.00 | 0.00 | 80 | 1015.1 |
| 20260906174604 | 79 | 265 | 3.0 | 7.0 | 0.00 | 0.00 | 0.00 | 80 | 1014.7 |
| 20260906173046 | 79 | 300 | 3.0 | 5.0 | 0.00 | 0.00 | 0.00 | 82 | 1014.9 |
| 20260906171545 | 80 | 254 | 3.0 | 10.0 | 0.00 | 0.00 | 0.00 | 84 | 1015.0 |
| 20260906170044 | 79 | 260 | 6.0 | 10.0 | 0.00 | 0.00 | 0.00 | 85 | 1014.8 |
| 20260906164541 | 79 | 244 | 4.0 | 10.0 | 0.00 | 0.00 | 0.00 | 89 | 1014.7 |
| 20260906163047 | 79 | 226 | 5.0 | 8.0 | 0.00 | 0.00 | 0.00 | 91 | 1014.8 |
| 20260906161536 | 78 | 200 | 3.0 | 8.0 | 0.00 | 0.00 | 0.00 | 92 | 1014.9 |
| 20260906160032 | 78 | 197 | 4.0 | 10.0 | 0.00 | 0.00 | 0.00 | 92 | 1014.8 |
| 20260906154531 | 77 | 183 | 7.0 | 12.0 | 0.00 | 0.00 | 0.00 | 92 | 1014.7 |
| 20260906153029 | 77 | 179 | 5.0 | 12.0 | 0.00 | 0.00 | 0.00 | 92 | 1014.3 |
| 20260906151528 | 77 | 168 | 6.0 | 12.0 | 0.00 | 0.00 | 0.00 | 93 | 1014.5 |
| 20260906150029 | 77 | 123 | 4.0 | 13.0 | 0.00 | 0.00 | 0.00 | 93 | 1014.5 |
| 20260906144528 | 76 | 142 | 6.0 | 14.0 | 0.00 | 0.00 | 0.00 | 94 | 1014.6 |
| 20260906143024 | 76 | 131 | 8.0 | 15.0 | 0.00 | 0.00 | 0.00 | 95 | 1014.4 |
| 20260906141522 | 76 | 128 | 7.0 | 12.0 | 0.00 | 0.00 | 0.00 | 96 | 1014.3 |
| 20260906140020 | 75 | 121 | 6.0 | 11.0 | 0.00 | 0.00 | 0.00 | 97 | 1014.1 |
| 20260906134637 | 75 | 125 | 6.0 | 11.0 | 0.00 | 0.00 | 0.00 | 97 | 1014.3 |
| 20260906133016 | 75 | 120 | 6.0 | 11.0 | 0.00 | 0.00 | 0.00 | 98 | 1014.4 |
| 20260906131514 | 74 | 128 | 6.0 | 12.0 | 0.00 | 0.00 | 0.00 | 98 | 1014.2 |
| 20260906130016 | 74 | 133 | 5.0 | 10.0 | 0.00 | 0.00 | 0.00 | 98 | 1014.2 |
| 20260906124510 | 74 | 151 | 5.0 | 10.0 | 0.00 | 0.00 | 0.00 | 98 | 1014.1 |
| 20260906123027 | 74 | 121 | 4.0 | 8.0 | 0.00 | 0.00 | 0.00 | 98 | 1014.0 |
| 20260906121509 | 74 | 134 | 4.0 | 9.0 | 0.00 | 0.00 | 0.00 | 98 | 1013.9 |
| 20260906120008 | 74 | 127 | 4.0 | 9.0 | 0.00 | 0.00 | 0.00 | 98 | 1013.8 |
| 20260906114508 | 74 | 132 | 3.0 | 9.0 | 0.00 | 0.00 | 0.00 | 98 | 1013.6 |
| 20260906113011 | 74 | 113 | 3.0 | 10.0 | 0.00 | 0.00 | 0.00 | 98 | 1013.4 |
| 20260906111506 | 74 | 149 | 4.0 | 10.0 | 0.00 | 0.00 | 0.00 | 98 | 1013.3 |
| 20260906110006 | 74 | 109 | 5.0 | 9.0 | 0.00 | 0.00 | 0.00 | 98 | 1013.4 |
| 20260906104505 | 74 | 134 | 5.0 | 11.0 | 0.00 | 0.00 | 0.00 | 98 | 1013.2 |
| 20260906103005 | 73 | 146 | 6.0 | 11.0 | 0.00 | 0.00 | 0.00 | 98 | 1013.3 |
| 20260906101502 | 73 | 134 | 7.0 | 12.0 | 0.00 | 0.00 | 0.00 | 98 | 1013.3 |
| 20260906100058 | 73 | 153 | 8.0 | 12.0 | 0.00 | 0.00 | 0.00 | 97 | 1013.3 |
| 20260906094559 | 73 | 138 | 7.0 | 15.0 | 0.00 | 0.00 | 0.00 | 97 | 1013.3 |
| 20260906093103 | 73 | 155 | 7.0 | 13.0 | 0.00 | 0.00 | 0.00 | 97 | 1013.4 |
| 20260906091553 | 72 | 144 | 6.0 | 12.0 | 0.00 | 0.00 | 0.00 | 97 | 1013.8 |
| 20260906084556 | 72 | 146 | 3.0 | 7.0 | 0.00 | 0.00 | 0.00 | 97 | 1013.8 |
| 20260906083049 | 71 | 138 | 4.0 | 8.0 | 0.00 | 0.00 | 0.00 | 97 | 1013.4 |
| 20260906081553 | 71 | 138 | 3.0 | 8.0 | 0.00 | 0.00 | 0.00 | 96 | 1013.4 |
| 20260906080051 | 71 | 137 | 5.0 | 10.0 | 0.00 | 0.00 | 0.00 | 96 | 1013.3 |
| 20260906074546 | 71 | 122 | 5.0 | 10.0 | 0.00 | 0.00 | 0.00 | 96 | 1013.3 |
| 20260906073054 | 71 | 123 | 5.0 | 9.0 | 0.00 | 0.00 | 0.00 | 96 | 1013.2 |
| 20260906071542 | 71 | 115 | 6.0 | 10.0 | 0.00 | 0.00 | 0.00 | 96 | 1013.3 |
| 20260906070051 | 70 | 123 | 5.0 | 10.0 | 0.00 | 0.00 | 0.00 | 96 | 1013.1 |
| 20260906064539 | 70 | 130 | 6.0 | 9.0 | 0.00 | 0.00 | 0.00 | 95 | 1013.3 |
| 20260906063039 | 70 | 117 | 5.0 | 9.0 | 0.00 | 0.00 | 0.00 | 95 | 1013.3 |
| 20260906061538 | 70 | 128 | 6.0 | 10.0 | 0.00 | 0.00 | 0.00 | 94 | 1013.2 |
| 20260906060034 | 70 | 108 | 3.0 | 7.0 | 0.00 | 0.00 | 0.00 | 94 | 1013.4 |
| 20260906054533 | 70 | 123 | 4.0 | 8.0 | 0.00 | 0.00 | 0.00 | 93 | 1013.3 |
| 20260906053037 | 70 | 132 | 3.0 | 7.0 | 0.00 | 0.00 | 0.00 | 92 | 1013.5 |
| 20260906051528 | 70 | 134 | 4.0 | 7.0 | 0.00 | 0.00 | 0.00 | 92 | 1013.6 |
| 20260906050026 | 71 | 136 | 2.0 | 7.0 | 0.00 | 0.00 | 0.00 | 91 | 1014.1 |
| 20260906044525 | 71 | 121 | 3.0 | 7.0 | 0.00 | 0.00 | 0.00 | 91 | 1013.9 |
| 20260906043038 | 71 | 126 | 3.0 | 7.0 | 0.00 | 0.00 | 0.00 | 90 | 1014.0 |
| 20260906041524 | 71 | 114 | 4.0 | 8.0 | 0.00 | 0.00 | 0.00 | 89 | 1013.8 |
| 20260906040025 | 72 | 137 | 4.0 | 8.0 | 0.00 | 0.00 | 0.00 | 88 | 1013.7 |
| 20260906034526 | 72 | 138 | 4.0 | 8.0 | 0.00 | 0.00 | 0.00 | 88 | 1013.7 |
| 20260906033024 | 72 | 136 | 5.0 | 10.0 | 0.00 | 0.00 | 0.00 | 88 | 1013.6 |
| 20260906031521 | 71 | 142 | 4.0 | 8.0 | 0.00 | 0.00 | 0.00 | 87 | 1013.4 |
| 20260906030022 | 72 | 139 | 4.0 | 8.0 | 0.00 | 0.00 | 0.00 | 87 | 1013.4 |
| 20260906024521 | 72 | 133 | 4.0 | 9.0 | 0.00 | 0.00 | 0.00 | 86 | 1013.4 |
| 20260906023021 | 72 | 142 | 3.0 | 6.0 | 0.00 | 0.00 | 0.00 | 85 | 1013.3 |
| 20260906021519 | 73 | 138 | 2.0 | 5.0 | 0.00 | 0.00 | 0.00 | 84 | 1013.3 |
| 20260906020019 | 74 | 132 | 4.0 | 7.0 | 0.00 | 0.00 | 0.00 | 83 | 1013.0 |
| 20260906014526 | 74 | 138 | 4.0 | 7.0 | 0.00 | 0.00 | 0.00 | 82 | 1012.9 |
| 20260906013019 | 76 | 142 | 2.0 | 4.0 | 0.00 | 0.00 | 0.00 | 80 | 1012.8 |
| 20260906011518 | 77 | 142 | 2.0 | 5.0 | 0.00 | 0.00 | 0.00 | 78 | 1012.7 |
| 20260906010017 | 79 | 143 | 2.0 | 4.0 | 0.00 | 0.00 | 0.00 | 75 | 1012.7 |
| 20260906004517 | 82 | 144 | 2.0 | 3.0 | 0.00 | 0.00 | 0.00 | 72 | 1012.6 |
| 20260906003017 | 85 | 144 | 1.0 | 4.0 | 0.00 | 0.00 | 0.00 | 66 | 1012.5 |
| 20260906001516 | 86 | 159 | 3.0 | 5.0 | 0.00 | 0.00 | 0.00 | 64 | 1012.5 |
| 20260906000015 | 87 | 159 | 3.0 | 7.0 | 0.00 | 0.00 | 0.00 | 62 | 1012.2 |
| 20260905234514 | 88 | 155 | 2.0 | 9.0 | 0.00 | 0.00 | 0.00 | 62 | 1012.0 |
| 20260905233013 | 88 | 189 | 5.0 | 10.0 | 0.00 | 0.00 | 0.00 | 61 | 1011.9 |
| 20260905231515 | 88 | 170 | 4.0 | 10.0 | 0.00 | 0.00 | 0.00 | 59 | 1011.7 |
| 20260905230014 | 89 | 188 | 5.0 | 11.0 | 0.00 | 0.00 | 0.00 | 58 | 1011.8 |
| 20260905224511 | 89 | 180 | 4.0 | 9.0 | 0.00 | 0.00 | 0.00 | 59 | 1011.8 |
| 20260905223010 | 89 | 137 | 7.0 | 14.0 | 0.00 | 0.00 | 0.00 | 56 | 1011.9 |
| 20260905221514 | 89 | 175 | 6.0 | 14.0 | 0.00 | 0.00 | 0.00 | 55 | 1012.0 |
| 20260905220009 | 89 | 158 | 7.0 | 13.0 | 0.00 | 0.00 | 0.00 | 54 | 1012.0 |
| 20260905214508 | 89 | 167 | 7.0 | 16.0 | 0.00 | 0.00 | 0.00 | 56 | 1011.9 |
| 20260905213006 | 88 | 144 | 7.0 | 12.0 | 0.00 | 0.00 | 0.00 | 59 | 1011.8 |
| 20260905211505 | 88 | 111 | 6.0 | 11.0 | 0.00 | 0.00 | 0.00 | 59 | 1011.9 |
| 20260905210005 | 88 | 142 | 6.0 | 12.0 | 0.00 | 0.00 | 0.00 | 59 | 1012.0 |
| 20260905204504 | 88 | 104 | 6.0 | 10.0 | 0.00 | 0.00 | 0.00 | 61 | 1012.0 |
| 20260905203004 | 88 | 92 | 7.0 | 12.0 | 0.00 | 0.00 | 0.00 | 58 | 1011.9 |
| 20260905201503 | 88 | 114 | 6.0 | 11.0 | 0.00 | 0.00 | 0.00 | 58 | 1011.9 |
| 20260905200001 | 88 | 167 | 4.0 | 11.0 | 0.00 | 0.00 | 0.00 | 60 | 1012.0 |
| 20260905194559 | 87 | 142 | 7.0 | 12.0 | 0.00 | 0.00 | 0.00 | 58 | 1012.0 |
| 20260905193057 | 87 | 145 | 5.0 | 11.0 | 0.00 | 0.00 | 0.00 | 59 | 1012.0 |